Flag Weather past 2 weeks in Graz, Styria, Austria

Now
36 °F

Fog.


Feels Like: 36 °F
Forecast: 40 / 45 °F
Wind: 2 mph from North

Location: Graz-Thalerhof-Flughafen

Current Time: Nov 28, 2014 at 4:06:42 PM

Latest Report: Nov 28, 2014 at 3:20 PM


Visibility: 2 mi

Pressure: 30.01 "Hg

Humidity: 100%

Dew point: 36 °F

Location of GrazLocation

Historic Weather in Graz — Graph

°F

Graz temperature yesterday

Maximum temperature yesterday: 36 °F (at 12:20 AM)
Minimum temperature yesterday: 34 °F (at 6:50 PM)
Average temperature yesterday: 35 °F

Past Weeks' High & Low Weather Summary

 TemperatureHumidityPressure
High59 °F (Nov 16, 2:20 PM)100% (Nov 14, 12:20 AM)30.39 "Hg (Nov 14, 12:20 AM)
Low32 °F (Nov 20, 3:50 AM)58% (Nov 20, 1:20 PM)29.65 "Hg (Nov 16, 2:50 AM)
Average43 °F91%30.06 "Hg
* Reported Nov 13 2:20 PM — Nov 28 2:50 PM, Graz, Weather by CustomWeather, © 2014

Note: Actual official high and low records may vary slightly from our data, if they occured in-between our weather recording intervals... More about our weather records

Advertising

Graz weather history for previous 24 hours

 ConditionsComfort  
Time TempWeatherWind HumidityBarometerVisibility
2:50 PM
Nov 28
36 °FFog.1 mph100%30.01 "Hg2 mi
2:20 PM36 °FFog.3 mph100%30.01 "Hg1 mi
1:50 PM36 °FFog.3 mph100%30.01 "Hg2 mi
1:20 PM36 °FFog.2 mph93%30.01 "Hg2 mi
12:50 PM36 °FFog.3 mph93%30.01 "Hg2 mi
12:20 PM36 °FFog.3 mph100%30.01 "Hg2 mi
11:50 AM36 °FFog.3 mph93%30.04 "Hg2 mi
11:20 AM36 °FFog.3 mph93%30.04 "Hg2 mi
10:50 AM36 °FFog.2 mph93%30.04 "Hg3 mi
10:20 AM36 °FFog.2 mph93%30.04 "Hg2 mi
9:50 AM36 °FFog.3 mph93%30.04 "Hg2 mi
9:20 AM36 °FFog.3 mph93%30.01 "Hg1 mi
8:50 AM36 °FFog.2 mph93%30.01 "Hg1 mi
8:20 AM34 °FFog.2 mph100%30.01 "Hg1 mi
7:50 AM34 °FFog.3 mph100%30.01 "Hg1 mi
7:20 AM34 °FFog.2 mph100%30.01 "Hg1 mi
6:50 AM34 °FFog.1 mph100%30.01 "Hg1 mi
6:20 AM34 °FFog.2 mph100%29.98 "Hg1 mi
5:50 AM34 °FFog.2 mph100%29.98 "Hg1 mi
5:20 AM34 °FFog.2 mph100%29.98 "Hg1 mi
4:20 AM34 °FFog.2 mph100%29.98 "Hg1 mi
3:50 AM34 °FFog.2 mph100%29.98 "Hg1 mi
3:20 AM34 °FFog.2 mph100%29.98 "Hg1 mi
2:50 AM34 °FSnow. Overcast.3 mph100%29.98 "Hg1 mi
2:20 AM34 °FFog.2 mph100%29.98 "Hg1 mi
1:50 AM34 °FFog.3 mph100%29.98 "Hg1 mi
1:20 AM34 °FFog.3 mph100%29.98 "Hg1 mi
12:50 AM34 °FFog.2 mph100%29.98 "Hg1 mi
12:20 AM34 °FFog.3 mph100%29.98 "Hg1 mi
11:50 PM
Nov 27
34 °FFog.2 mph100%30.01 "Hg1 mi
11:20 PM34 °FDrizzle. Fog.3 mph100%30.01 "Hg2 mi
10:50 PM34 °FDrizzle. Fog.3 mph100%30.01 "Hg2 mi
10:20 PM34 °FDrizzle. Fog.5 mph100%30.01 "Hg2 mi
9:50 PM34 °FFog.6 mph93%30.01 "Hg2 mi
9:20 PM34 °FFog.6 mph100%30.01 "Hg2 mi
8:50 PM34 °FDrizzle. Fog.5 mph100%30.01 "Hg2 mi
8:20 PM34 °FDrizzle. Fog.5 mph100%30.01 "Hg1 mi
7:50 PM34 °FDrizzle. Fog.3 mph100%30.01 "Hg1 mi
7:20 PM34 °FDrizzle. Fog.5 mph100%30.01 "Hg1 mi
6:50 PM34 °FDrizzle. Fog.5 mph100%30.01 "Hg1 mi
6:20 PM36 °FDrizzle. Fog.5 mph93%30.01 "Hg2 mi
5:50 PM36 °FDrizzle. Fog.5 mph93%30.01 "Hg3 mi
5:20 PM36 °FFog.5 mph93%30.01 "Hg3 mi
4:50 PM36 °FFog.6 mph93%30.01 "Hg3 mi
4:20 PM36 °FFog.5 mph87%30.01 "Hg3 mi
Weather by CustomWeather, © 2014

See weather overviewHow to use our weather pages